[[{"header":{"parameterUnit":"m.s-1","parameterCategory":1,"la1":30.2991,"la2":30.254,"lo1":-89.0895,"lo2":-89.0444,"dy":0.0017,"dx":0.0017,"nx":28,"ny":28,"refTime":"2025-11-14T03:00:00:Z","depth":0,"parameterNumber":2,"parameterNumberName":"U-component_of_WINDS"},"data":[0,0,0,0,0,0,0,0,0,0,0,0,0,0,0,0,0,0,0,0,0,0,0,0,0,0,0,0,0,0,0,0,0,0,0,0,0,0,0,0,0,0,0,0,0,0,0,0,0,0,0,0,0,0,0,0,0,0,-0.4771,-0.4771,0,-0.4773,-0.4773,-0.4773,-0.4768,-0.4768,-0.4768,-0.4767,-0.4769,-0.4769,-0.4769,0,0,0,0,0,0,0,0,0,0,0,0,0,-0.4762,-0.4762,-0.4771,-0.4771,-0.4771,-0.4773,-0.4773,-0.4773,-0.4768,-0.4768,-0.4767,-0.4767,-0.4769,-0.4769,-0.4769,0,0,0,0,0,0,0,0,0,0,0,0,0,-0.4765,-0.4762,-0.4771,-0.4768,-0.4768,-0.4773,-0.4773,-0.4773,-0.4768,-0.4768,-0.4767,-0.4767,-0.4769,-0.4769,-0.4769,-0.4776,0,0,-0.477,-0.4771,0,0,0,0,0,0,0,0,-0.4765,-0.4765,-0.4769,-0.4768,-0.4768,-0.477,-0.477,-0.4774,-0.4768,-0.4768,-0.4767,-0.4767,-0.4769,-0.477,-0.4771,-0.4776,-0.4776,-0.477,-0.4771,-0.4771,-0.4771,0,0,0,0,0,0,0,-0.4764,-0.4765,-0.4771,-0.4769,-0.4768,-0.4767,-0.4767,-0.4771,-0.477,-0.4768,-0.4768,-0.4768,-0.4769,-0.477,-0.4771,-0.4777,-0.477,-0.4771,-0.4771,-0.4771,-0.4789,-0.479,0,0,0,0,0,0,-0.4765,-0.4765,-0.4771,-0.4772,-0.4766,-0.4768,-0.4768,-0.477,-0.477,-0.477,-0.4768,-0.4768,-0.477,-0.477,-0.4771,-0.4779,-0.4771,-0.4771,-0.4771,-0.4789,-0.4789,-0.479,0,0,0,0,0,0,-0.4764,-0.4765,-0.4771,-0.4768,-0.4769,-0.4768,-0.477,-0.477,-0.4771,-0.477,-0.477,-0.477,-0.477,-0.477,-0.4775,-0.4779,-0.4771,-0.4771,-0.4789,-0.4789,-0.479,-0.4797,0,0,0,0,0,0,-0.4764,-0.4765,-0.4768,-0.4768,-0.4769,-0.4776,-0.477,-0.477,-0.4772,-0.4771,-0.4771,-0.4771,-0.477,-0.4775,-0.4776,-0.478,-0.4772,-0.4788,-0.4789,-0.4789,-0.4796,-0.4797,-0.4798,0,0,0,0,0,-0.4764,-0.4769,-0.4768,-0.4768,-0.4772,-0.4776,-0.4776,-0.4775,-0.4772,-0.4774,-0.4774,-0.4771,-0.4779,-0.4775,-0.4776,-0.478,-0.4788,-0.4789,-0.4789,-0.4795,-0.4797,-0.4798,0,0,0,0,0,0,-0.4768,-0.4769,-0.4767,-0.4773,-0.4775,-0.4775,-0.4778,-0.4776,-0.4778,-0.4778,-0.4776,-0.4776,-0.4781,-0.4781,-0.4777,-0.4788,-0.4783,-0.4784,-0.4787,-0.4789,-0.479,-0.479,-0.4772,0,0,0,0,0,-0.477,-0.4773,-0.4774,-0.4778,-0.4779,-0.4779,-0.478,-0.4779,-0.4781,-0.4781,-0.4781,-0.4782,-0.4785,-0.4787,-0.479,-0.4796,-0.4797,-0.48,-0.4801,-0.4802,-0.4802,-0.4807,-0.4809,-0.4792,-0.4792,-0.4792,0,0,-0.4773,-0.4774,-0.4776,-0.4779,-0.478,-0.4784,-0.4779,-0.4783,-0.4786,-0.4781,-0.4786,-0.4787,-0.4788,-0.4794,-0.4797,-0.4795,-0.4807,-0.4803,-0.4803,-0.4804,-0.4808,-0.4809,-0.4811,-0.4792,-0.4792,-0.4792,0,0,-0.4781,-0.4782,-0.4787,-0.4788,-0.479,-0.479,-0.4791,-0.4792,-0.4792,-0.4797,-0.4795,-0.4798,-0.4803,-0.4804,-0.4805,-0.4816,-0.4813,-0.4817,-0.4823,-0.4827,-0.4828,-0.4829,-0.4834,-0.4835,-0.4817,-0.4817,-0.4817,0,-0.4785,-0.479,-0.4789,-0.4793,-0.4795,-0.4792,-0.4797,-0.4799,-0.4801,-0.4803,-0.48,-0.4807,-0.4808,-0.4814,-0.4817,-0.4818,-0.482,-0.4816,-0.4828,-0.4829,-0.483,-0.4834,-0.4836,-0.4818,-0.4818,-0.4818,-0.4818,0,-0.4795,-0.4799,-0.4802,-0.4806,-0.4808,-0.4812,-0.4812,-0.4815,-0.4814,-0.4814,-0.482,-0.4821,-0.4824,-0.4826,-0.4824,-0.4833,-0.4831,-0.4829,-0.4824,-0.4832,-0.4836,-0.4838,-0.4818,-0.4818,-0.4818,-0.4818,0,0,-0.4805,-0.4808,-0.481,-0.4812,-0.4814,-0.4817,-0.4822,-0.4826,-0.4828,-0.483,-0.4835,-0.484,-0.4837,-0.4839,-0.4838,-0.4842,-0.4851,-0.4839,-0.4839,-0.4841,-0.4861,-0.4863,-0.4865,-0.4849,-0.485,-0.485,-0.4861,0,-0.4813,-0.4821,-0.4821,-0.4829,-0.4833,-0.4831,-0.4836,-0.4838,-0.4839,-0.4842,-0.4843,-0.4847,-0.4843,-0.4844,-0.4848,-0.4849,-0.4855,-0.4848,-0.4853,-0.4854,-0.4853,-0.4867,-0.4869,-0.4879,-0.4862,-0.4863,-0.4863,0,-0.4823,-0.4827,-0.4835,-0.4838,-0.484,-0.4844,-0.4848,-0.4851,-0.4854,-0.4854,-0.4857,-0.4856,-0.4861,-0.4857,-0.4864,-0.486,-0.4862,-0.4863,-0.4864,-0.4864,-0.4859,-0.4867,-0.4882,-0.4884,-0.4865,-0.4865,-0.4865,0,-0.483,-0.4837,-0.4843,-0.4845,-0.4848,-0.4851,-0.4853,-0.4856,-0.4858,-0.4862,-0.4864,-0.4867,-0.487,-0.4873,-0.4873,-0.487,-0.4881,-0.4876,-0.4882,-0.4882,-0.4884,-0.4884,-0.4899,-0.4885,-0.4885,-0.4885,-0.4885,0,-0.4839,-0.4845,-0.4846,-0.485,-0.4856,-0.4856,-0.4863,-0.4864,-0.4867,-0.4871,-0.487,-0.4874,-0.4874,-0.4878,-0.4878,-0.4885,-0.4886,-0.4887,-0.4887,-0.4887,-0.4887,-0.4888,-0.4887,-0.4886,-0.4886,-0.4886,-0.4886,0,-0.4847,-0.4849,-0.4855,-0.4859,-0.486,-0.4864,-0.4867,-0.4871,-0.4872,-0.4878,-0.4879,-0.4881,-0.4886,-0.4887,-0.4893,-0.4893,-0.4901,-0.49,-0.49,-0.49,-0.4906,-0.4905,-0.4923,-0.4925,-0.491,-0.491,-0.491,0,-0.4853,-0.4857,-0.4862,-0.4865,-0.4867,-0.4871,-0.4874,-0.4875,-0.4878,-0.4883,-0.4886,-0.4891,-0.4896,-0.4904,-0.4906,-0.4911,-0.491,-0.4916,-0.4911,-0.4911,-0.4911,-0.491,-0.4911,-0.4917,-0.4917,-0.4917,-0.4917,0,-0.4863,-0.4864,-0.4868,-0.4874,-0.4877,-0.4881,-0.4885,-0.4887,-0.4889,-0.4892,-0.4898,-0.4901,-0.4908,-0.4913,-0.4918,-0.492,-0.4919,-0.4919,-0.492,-0.4921,-0.4921,-0.4921,-0.4903,-0.4918,-0.4918,-0.4918,-0.4918,-0.4918,-0.4871,-0.4875,-0.4879,-0.4884,-0.4887,-0.4891,-0.4895,-0.4897,-0.4902,-0.4908,-0.4908,-0.4914,-0.4918,-0.4925,-0.4927,-0.4932,-0.4931,-0.4933,-0.4933,-0.4934,-0.4935,-0.492,-0.4933,-0.4933,-0.4933,-0.4933,-0.4933,0,-0.4881,-0.4884,-0.4889,-0.4894,-0.4899,-0.4898,-0.4902,-0.4906,-0.4912,-0.4916,-0.492,-0.4927,-0.4933,-0.4936,-0.4941,-0.4945,-0.4945,-0.4946,-0.4946,-0.4947,-0.4936,-0.4934,-0.4947,-0.4947,-0.4947,-0.4947,-0.4947,-0.4947,-0.4887,-0.4894,-0.4896,-0.4905,-0.4907,-0.4914,-0.4917,-0.492,-0.4924,-0.4932,-0.4937,-0.4939,-0.4942,-0.4948,-0.4954,-0.4954,-0.4957,-0.4959,-0.4959,-0.4949,-0.4947,-0.4946,-0.4944,-0.4959,-0.4959,-0.497,-0.497,-0.497]},{"header":{"parameterUnit":"m.s-1","parameterCategory":1,"la1":30.2991,"la2":30.254,"lo1":-89.0895,"lo2":-89.0444,"dy":0.0017,"dx":0.0017,"nx":28,"ny":28,"refTime":"2025-11-14T03:00:00:Z","depth":0,"parameterNumber":3,"parameterNumberName":"V-component_of_WINDS"},"data":[0,0,0,0,0,0,0,0,0,0,0,0,0,0,0,0,0,0,0,0,0,0,0,0,0,0,0,0,0,0,0,0,0,0,0,0,0,0,0,0,0,0,0,0,0,0,0,0,0,0,0,0,0,0,0,0,0,0,1.2829,1.2829,0,1.2824,1.2824,1.2824,1.282,1.282,1.2819,1.2819,1.2812,1.2812,1.2812,0,0,0,0,0,0,0,0,0,0,0,0,0,1.2834,1.2834,1.2829,1.2829,1.2829,1.2824,1.2824,1.2824,1.282,1.2819,1.2819,1.2819,1.2812,1.2812,1.2812,0,0,0,0,0,0,0,0,0,0,0,0,0,1.2831,1.2834,1.2829,1.2827,1.2826,1.2824,1.2824,1.2824,1.282,1.2819,1.2819,1.2819,1.2812,1.2812,1.2812,1.2812,0,0,1.2811,1.2811,0,0,0,0,0,0,0,0,1.2831,1.2831,1.2827,1.2827,1.2826,1.2823,1.2823,1.282,1.282,1.2822,1.2819,1.2819,1.2815,1.2815,1.2814,1.2811,1.2811,1.2811,1.2811,1.2811,1.2811,0,0,0,0,0,0,0,1.2831,1.2831,1.2827,1.2827,1.2827,1.2825,1.2824,1.2822,1.2819,1.2822,1.2821,1.2821,1.2815,1.2814,1.2814,1.2811,1.2811,1.2811,1.2811,1.281,1.2809,1.2809,0,0,0,0,0,0,1.2832,1.2831,1.2828,1.2827,1.2829,1.2825,1.2824,1.2824,1.2819,1.2818,1.2821,1.2821,1.2815,1.2814,1.2813,1.2814,1.2811,1.281,1.281,1.2809,1.2809,1.2809,0,0,0,0,0,0,1.2832,1.2832,1.2828,1.2829,1.2828,1.2825,1.2824,1.2824,1.2823,1.2819,1.2818,1.2821,1.2815,1.2814,1.2813,1.2814,1.281,1.281,1.2809,1.2809,1.2809,1.2815,0,0,0,0,0,0,1.2832,1.2832,1.2832,1.2829,1.2828,1.2827,1.2824,1.2824,1.2823,1.2822,1.2818,1.2817,1.2814,1.2813,1.2812,1.2813,1.281,1.2809,1.2809,1.2809,1.2814,1.2815,1.2815,0,0,0,0,0,1.2833,1.2833,1.2832,1.2832,1.2829,1.2827,1.2827,1.2824,1.2823,1.2823,1.282,1.2818,1.2814,1.2813,1.2812,1.2813,1.2809,1.2809,1.2809,1.2814,1.2815,1.2815,0,0,0,0,0,0,1.2835,1.2833,1.2831,1.2831,1.283,1.2827,1.2826,1.2825,1.2823,1.2822,1.2819,1.2818,1.2817,1.2815,1.2814,1.2813,1.2811,1.2811,1.2815,1.2815,1.2816,1.2817,1.281,0,0,0,0,0,1.2836,1.2836,1.2833,1.2833,1.2833,1.283,1.2829,1.2827,1.2825,1.2824,1.2821,1.2819,1.2817,1.2816,1.2814,1.2814,1.2813,1.2814,1.2815,1.2815,1.2815,1.2816,1.2817,1.281,1.281,1.281,0,0,1.2837,1.2836,1.2835,1.2834,1.2832,1.2832,1.2829,1.2828,1.2828,1.2824,1.2823,1.2821,1.2818,1.2817,1.2817,1.2815,1.2817,1.2816,1.2816,1.2816,1.2816,1.2817,1.2817,1.281,1.281,1.281,0,0,1.2839,1.2838,1.2838,1.2837,1.2836,1.2834,1.2834,1.2831,1.283,1.283,1.2827,1.2826,1.2823,1.2821,1.282,1.2823,1.282,1.2822,1.2825,1.2826,1.2826,1.2827,1.2828,1.2829,1.2822,1.2822,1.2822,0,1.284,1.284,1.2838,1.2838,1.2838,1.2835,1.2836,1.2834,1.2832,1.2831,1.283,1.2827,1.2825,1.2824,1.2825,1.2824,1.2824,1.2823,1.2827,1.2827,1.2827,1.2829,1.2829,1.2823,1.2823,1.2823,1.2823,0,1.2842,1.2842,1.2843,1.2842,1.2841,1.2841,1.2839,1.2839,1.2837,1.2836,1.2835,1.2833,1.2831,1.2831,1.2829,1.283,1.2829,1.2827,1.2825,1.2828,1.283,1.283,1.2823,1.2823,1.2823,1.2823,0,0,1.2845,1.2844,1.2844,1.2844,1.2843,1.2842,1.2843,1.2842,1.2842,1.284,1.2841,1.2839,1.2837,1.2836,1.2834,1.2834,1.2838,1.2832,1.2832,1.2834,1.284,1.2842,1.2843,1.2836,1.2836,1.2836,1.284,0,1.2847,1.2848,1.2847,1.2848,1.2848,1.2846,1.2846,1.2845,1.2844,1.2844,1.2842,1.2842,1.2839,1.2839,1.2839,1.2837,1.2839,1.2837,1.2836,1.2836,1.2837,1.2843,1.2845,1.2849,1.2841,1.2841,1.2841,0,1.2849,1.2849,1.2851,1.285,1.285,1.2851,1.285,1.285,1.2849,1.2848,1.2848,1.2846,1.2846,1.2844,1.2844,1.2843,1.2842,1.2841,1.2842,1.2841,1.2839,1.2844,1.285,1.2851,1.2842,1.2842,1.2842,0,1.2851,1.2852,1.2853,1.2853,1.2852,1.2853,1.2853,1.2852,1.2852,1.2851,1.2851,1.2851,1.285,1.285,1.2848,1.2846,1.2848,1.2846,1.2848,1.2848,1.2848,1.2848,1.2855,1.2848,1.2847,1.2847,1.2847,0,1.2854,1.2855,1.2854,1.2855,1.2856,1.2855,1.2856,1.2856,1.2855,1.2856,1.2854,1.2854,1.2852,1.2852,1.285,1.2851,1.2851,1.285,1.2849,1.285,1.285,1.285,1.285,1.2848,1.2848,1.2848,1.2848,0,1.2856,1.2856,1.2858,1.2858,1.2858,1.2859,1.2859,1.2859,1.2859,1.2859,1.2859,1.2858,1.2858,1.2856,1.2856,1.2855,1.2856,1.2855,1.2857,1.2857,1.2859,1.2859,1.2866,1.2867,1.2859,1.2859,1.2859,0,1.2858,1.2859,1.286,1.286,1.2861,1.2862,1.2862,1.2861,1.2862,1.2862,1.2862,1.2863,1.2863,1.2863,1.2862,1.2862,1.2861,1.2863,1.2861,1.2862,1.2861,1.2862,1.2862,1.2864,1.2864,1.2864,1.2864,0,1.2861,1.2861,1.2862,1.2864,1.2865,1.2865,1.2866,1.2866,1.2866,1.2866,1.2867,1.2867,1.2868,1.2868,1.2868,1.2867,1.2866,1.2865,1.2866,1.2866,1.2868,1.2868,1.2859,1.2865,1.2865,1.2865,1.2865,1.2864,1.2863,1.2865,1.2866,1.2867,1.2868,1.2869,1.287,1.287,1.2871,1.2872,1.2871,1.2873,1.2873,1.2873,1.2872,1.2873,1.2872,1.2872,1.2873,1.2873,1.2874,1.2868,1.2873,1.2873,1.2873,1.2873,1.2873,0,1.2867,1.2868,1.2869,1.2871,1.2872,1.2872,1.2873,1.2874,1.2875,1.2876,1.2877,1.2878,1.2879,1.2878,1.2879,1.288,1.2879,1.288,1.288,1.288,1.2874,1.2874,1.2881,1.2881,1.2881,1.2881,1.2881,1.2881,1.2868,1.2871,1.2872,1.2875,1.2876,1.2878,1.2878,1.2879,1.288,1.2882,1.2883,1.2883,1.2883,1.2884,1.2885,1.2885,1.2886,1.2887,1.2886,1.2881,1.288,1.288,1.2879,1.2887,1.2887,1.2892,1.2892,1.2892]}]]